This demonstration page uses our WeatherBlox Daily Observations layout. Learn more.

Left ArrowRight Arrow

39.08367, -84.50855

Hourly Observations for April 21, 2017

Temp ( °F °C ) Dew Point ( °F °C ) Humidity (%) Winds ( mph kmh ) Pressure ( in mb ) Visibility ( mi km ) Precip ( " mm )
12:17 am 00:17 Clear 70 21.1 65 18.3 84 84 SW 14 22 29.91 1013 10 16 N/A
12:24 am 00:24 Mostly Clear with Nearby Thunderstorms 70 21 64 18 83 83 WSW 8 13 29.91 1013 10 16 N/A
12:31 am 00:31 Partly Cloudy with Strong Thunderstorms 69 20.6 66 18.9 90 90 W 17 28 29.91 1013 3 4 0.11 2.79
12:40 am 00:40 Mostly Cloudy with Strong Thunderstorms 67 19.4 65 18.3 93 93 WSW 12 19 29.91 1013 2 3 0.23 5.84
12:48 am 00:48 Cloudy with Strong Thunderstorms 66 19 64 18 94 94 SW 10 17 29.91 1013 3 4 N/A
12:53 am 00:53 Cloudy with Thunderstorms 65 18.3 64 17.8 97 97 SSW 9 15 29.90 1012 4 6 0.29 7.37
1:10 am 01:10 Cloudy with Nearby Thunderstorms 64 18 63 17 94 94 WSW 5 7 29.91 1013 4 6 N/A
1:22 am 01:22 Cloudy 64 18 63 17 94 94 WSW 6 9 29.91 1013 10 16 N/A
1:53 am 01:53 Cloudy with Light Rain 64 17.8 64 17.8 100 100 N N/A 29.90 1013 10 16 0.04 1.02
2:44 am 02:44 Cloudy 66 19 64 18 94 94 WNW 9 15 29.91 1013 10 16 N/A
2:53 am 02:53 Cloudy 65 18.3 62 16.7 90 90 NW 12 19 29.91 1013 10 16 N/A
3:12 am 03:12 Cloudy 64 18 61 16 88 88 NW 10 17 29.91 1013 10 16 N/A
3:53 am 03:53 Cloudy with Light Rain 61 16.1 56 13.3 84 84 NW 6 9 29.94 1014 10 16 N/A
4:53 am 04:53 Cloudy with Light Rain 58 14.4 55 12.8 90 90 WNW 7 11 29.96 1015 10 16 0.02 0.51
5:53 am 05:53 Mostly Cloudy 57 13.9 51 10.6 81 81 VRB 5 7 29.96 1015 10 16 N/A
6:53 am 06:53 Mostly Sunny 54 12.2 49 9.4 83 83 N 7 11 29.99 1016 10 16 N/A
7:53 am 07:53 Sunny 54 12.2 47 8.3 77 77 NNW 5 7 30.02 1017 10 16 N/A
8:53 am 08:53 Sunny 55 12.8 47 8.3 74 74 NW 9 15 30.01 1016 10 16 N/A
9:53 am 09:53 Sunny 56 13.3 47 8.3 72 72 NNW 8 13 30.03 1017 10 16 N/A
10:53 am 10:53 Sunny 57 13.9 48 8.9 72 72 W 7 11 30.04 1017 10 16 N/A
11:53 am 11:53 Sunny 58 14.4 47 8.3 67 67 VRB 5 7 30.04 1017 10 16 N/A
12:53 pm 12:53 Sunny 58 14.4 47 8.3 67 67 NNW 6 9 30.04 1017 10 16 N/A
1:53 pm 13:53 Sunny 61 16.1 49 9.4 65 65 NNW 8 13 30.01 1016 10 16 N/A
2:53 pm 14:53 Sunny 61 16.1 49 9.4 65 65 VRB 7 11 29.98 1015 10 16 N/A
3:53 pm 15:53 Mostly Sunny 63 17.2 50 10 63 63 NW 7 11 29.98 1015 10 16 N/A
4:53 pm 16:53 Sunny 64 17.8 49 9.4 58 58 N 9 15 29.97 1015 10 16 N/A
5:53 pm 17:53 Sunny 64 17.8 48 8.9 56 56 N 10 17 29.98 1015 10 16 N/A
6:53 pm 18:53 Mostly Cloudy 60 15.6 47 8.3 62 62 N 8 13 29.99 1016 10 16 N/A
7:53 pm 19:53 Cloudy with Light Rain 59 15 49 9.4 69 69 N 6 9 29.99 1016 10 16 N/A
8:53 pm 20:53 Cloudy with Light Rain 57 13.9 49 9.4 74 74 NNE 8 13 30.00 1016 10 16 0.01 0.25
9:53 pm 21:53 Cloudy with Light Rain 55 12.8 52 11.1 90 90 N N/A 30.04 1017 9 14 0.03 0.76
10:53 pm 22:53 Cloudy with Light Rain 54 12.2 50 10 87 87 N 6 9 30.02 1017 10 16 0.01 0.25
11:53 pm 23:53 Cloudy with Light Rain 52 11.1 49 9.4 89 89 N 8 13 30.02 1017 10 16 0.01 0.25

Powered by AerisWeather